Track FLOCK 4A 20 now! 10-day predictions FLOCK 4A 20 is classified as:
1 44091U 19018P 22187.13891573 .00010541 00000-0 32246-3 0 9995 2 44091 97.3088 247.6510 0011500 58.3274 301.9089 15.33963285181584